GFSSE_sfc_thetae_000.txt.gz
Theta_e
321 331 338 346 349 348 347 347 348 347 347 347 348 348 348 347 346 345 345 345 346 346 346 345 345 344 345 346 348 349 351 355 353 353 354 355 355 355 356 354 352 351 355
313 319 331 342 344 345 348 347 346 347 346 346 347 348 347 348 348 347 346 347 347 347 348 348 347 346 345 348 349 349 351 353 352 351 351 352 353 355 355 353 352 349 355
307 313 323 337 339 341 343 343 344 346 346 346 347 347 347 347 347 347 348 349 348 348 348 348 347 346 347 347 348 349 349 351 352 350 349 348 348 354 354 353 352 353 354
305 308 321 333 332 335 336 337 338 341 343 343 344 345 346 346 347 347 346 347 347 347 347 348 348 348 348 348 348 349 349 349 351 348 346 346 347 352 352 353 353 353 354
299 303 316 325 324 326 327 328 329 332 334 337 339 339 339 340 342 344 345 345 345 346 346 347 346 349 348 349 349 349 348 348 348 346 344 344 345 350 353 354 353 353 351
297 299 310 318 319 320 321 322 322 325 327 329 331 332 333 336 337 338 340 342 343 344 345 346 346 347 347 348 349 349 348 347 347 344 342 344 345 350 353 355 353 350 348
294 297 301 313 314 315 317 318 318 319 321 323 322 323 327 330 331 333 334 335 338 341 343 344 345 346 345 347 348 348 347 344 342 341 341 341 344 351 351 354 354 352 351
293 296 298 305 309 310 312 313 313 314 315 316 316 318 319 318 322 325 325 327 332 335 338 341 343 344 344 345 345 346 343 340 339 340 341 341 343 350 351 353 353 353 351
293 294 294 295 301 305 307 308 309 309 310 311 310 311 312 314 318 313 314 317 320 322 325 330 337 340 342 343 343 342 339 337 337 340 340 341 342 349 348 353 353 353 352
292 292 292 292 295 296 297 305 305 306 306 307 307 307 306 309 309 308 308 311 314 316 316 321 327 333 336 340 340 338 335 334 335 337 339 340 342 347 349 351 351 352 353
291 291 291 291 291 293 295 297 299 302 302 303 304 305 303 303 303 301 305 308 310 311 312 318 321 320 328 331 334 333 332 333 333 335 338 337 342 347 348 350 350 351 352
286 288 290 289 290 291 295 292 292 294 294 295 297 299 301 300 302 300 301 304 307 307 309 315 313 311 309 313 326 330 331 330 332 334 336 337 342 346 347 348 349 349 351
284 286 288 288 288 289 290 290 290 290 291 292 293 296 298 298 297 297 296 296 301 303 304 306 306 305 306 306 307 314 328 328 330 331 333 334 341 345 347 348 347 348 350
285 285 286 287 287 288 289 288 288 289 290 289 291 294 295 294 294 294 293 294 297 299 300 302 303 303 303 304 304 305 311 326 328 330 331 329 335 342 345 347 347 349 349
285 285 285 286 286 287 288 287 288 288 288 289 290 292 293 292 292 291 291 292 294 298 298 298 300 300 300 302 302 303 305 313 325 327 330 323 328 337 343 347 347 348 350
285 285 285 287 287 287 287 286 287 287 288 289 289 290 292 292 289 289 289 290 292 294 296 297 298 299 299 299 301 302 302 305 317 325 328 329 326 331 338 344 346 347 350
284 285 285 287 287 286 286 287 287 287 288 288 288 289 290 289 288 286 287 289 290 292 293 296 296 297 296 298 298 299 301 303 306 316 325 326 327 324 329 338 342 344 348
283 284 285 288 286 286 286 286 286 287 286 286 286 287 287 288 287 285 285 286 289 287 288 291 295 296 295 296 296 297 298 301 302 305 321 324 325 326 326 330 335 340 343
283 283 284 285 285 285 285 285 285 285 285 284 284 285 285 285 286 284 284 285 285 285 286 288 290 293 294 295 296 297 298 298 300 303 304 320 323 324 326 327 327 329 336
282 283 283 284 284 284 284 284 283 283 283 283 282 283 284 284 284 283 283 283 283 283 283 284 285 287 291 295 296 296 297 298 298 299 303 310 321 323 324 326 327 326 324
282 282 282 283 283 283 282 280 280 280 281 280 281 283 283 283 283 282 282 281 281 281 281 283 284 285 287 292 292 293 294 296 296 299 303 305 314 321 322 324 326 328 329
281 282 282 282 282 283 282 281 281 280 280 280 281 280 281 282 281 281 281 280 280 280 281 282 284 286 288 291 289 290 288 290 294 297 300 305 312 320 320 323 325 327 328
280 281 282 282 282 282 281 281 280 280 278 277 277 278 279 281 281 280 280 279 279 280 280 281 280 280 281 286 290 291 286 285 289 296 300 306 313 318 320 321 323 325 327
280 281 281 281 281 282 281 279 277 276 275 276 277 277 278 279 279 280 280 279 279 280 278 278 280 280 281 280 286 291 294 292 287 285 294 297 301 302 313 319 321 323 325
281 280 280 280 280 280 279 278 276 276 276 276 276 276 276 277 279 279 279 278 278 278 277 277 277 278 281 281 283 285 288 291 292 289 286 290 298 302 301 314 320 321 324
280 280 279 279 278 279 278 277 275 274 274 274 274 274 275 276 277 278 278 277 277 277 276 276 277 279 278 278 278 281 285 287 288 289 288 290 292 295 301 302 314 320 322

GFSSE_sfc_thetae_003.txt.gz
Theta_e
315 318 332 343 345 347 348 348 347 347 346 346 347 348 348 349 349 348 347 347 347 347 348 348 347 347 347 346 347 348 349 352 355 355 355 356 356 354 356 356 352 351 354
310 316 327 339 342 345 345 345 348 347 347 346 346 347 347 348 347 348 348 349 349 349 349 349 349 348 347 348 349 349 349 350 351 352 351 351 352 355 354 355 352 352 354
307 312 321 334 336 340 341 341 344 344 345 345 345 345 345 346 346 347 347 348 346 347 349 349 349 349 350 349 348 349 349 350 349 351 349 352 350 353 354 354 353 354 355
304 308 318 329 330 331 333 334 335 337 339 341 342 342 342 342 342 343 344 344 345 346 346 347 347 350 350 350 350 349 349 349 347 348 350 350 349 351 353 356 354 353 354
300 305 317 323 324 325 326 327 329 331 333 331 332 335 337 338 338 338 338 339 340 343 345 346 346 348 348 349 349 350 350 349 346 343 349 350 350 348 351 354 355 353 350
297 302 312 317 319 321 321 322 323 325 325 325 326 328 327 327 331 330 332 333 335 337 340 343 344 345 345 346 348 349 349 349 345 345 344 348 349 349 350 354 353 351 348
296 299 306 312 314 316 317 317 318 318 318 318 319 320 320 324 319 318 321 324 326 328 331 335 338 340 342 344 345 346 346 345 345 345 344 344 347 350 351 354 354 353 352
296 298 299 305 309 310 311 312 313 313 313 313 313 313 315 316 312 313 315 317 319 321 322 326 331 333 336 339 343 344 343 340 341 342 343 344 344 348 350 351 353 352 352
296 296 297 298 301 305 307 307 308 308 309 310 309 309 309 309 309 309 310 313 314 315 316 321 325 325 327 333 335 338 338 337 341 342 340 343 343 348 350 351 350 352 352
295 294 294 296 298 299 300 304 305 305 306 306 307 306 305 305 305 305 306 309 311 311 312 317 318 318 317 318 322 327 331 333 339 339 340 340 343 346 348 350 350 351 352
292 293 293 294 295 297 298 298 299 301 302 302 302 304 303 302 302 301 302 304 307 308 309 313 311 311 310 310 312 314 323 335 336 338 338 336 341 343 345 350 349 349 350
290 291 292 293 293 295 295 295 296 296 296 297 298 299 301 300 300 299 299 300 302 304 304 308 308 308 307 307 308 309 313 316 329 335 336 335 341 342 343 347 349 348 350
289 290 290 291 292 293 294 294 294 295 295 296 296 297 299 298 298 297 297 296 299 300 300 302 303 303 304 305 306 306 306 309 317 329 332 332 338 340 342 345 348 348 348
288 289 289 290 291 292 293 293 293 294 294 294 294 296 296 295 295 294 294 295 296 296 298 299 300 302 303 304 304 304 304 305 307 315 325 326 333 338 341 342 346 348 348
288 288 289 290 291 291 292 292 292 292 293 293 294 295 294 293 292 291 292 293 293 295 294 295 297 299 301 302 303 302 302 304 306 309 317 321 326 333 337 341 343 346 348
287 288 289 290 290 291 291 291 291 292 292 292 292 293 292 292 290 290 290 291 291 293 291 292 294 297 299 301 301 301 301 303 304 306 309 317 325 329 334 337 340 343 346
288 288 288 289 289 290 290 290 291 291 291 290 291 291 291 290 289 288 289 289 290 290 289 290 292 295 297 299 299 299 301 302 303 303 306 306 312 323 327 333 337 340 344
287 287 288 289 289 289 289 289 290 290 290 289 289 289 289 288 288 287 287 287 288 288 288 288 289 290 292 294 296 299 301 301 302 303 304 306 308 319 326 327 331 335 339
286 286 287 288 288 288 288 289 288 289 289 288 287 287 288 287 287 286 286 286 287 286 286 287 287 288 288 290 292 295 299 301 302 302 302 304 305 307 317 325 324 326 332
286 286 286 287 287 287 288 287 287 287 287 286 286 286 287 286 286 284 285 285 285 284 284 285 286 288 288 290 291 293 296 298 299 299 300 302 303 304 307 321 327 325 322
285 285 285 285 286 286 285 284 284 284 284 285 285 285 284 284 284 283 284 284 284 283 283 284 285 286 288 290 291 292 294 296 296 298 300 301 301 303 306 313 325 327 327
284 284 284 285 285 285 284 284 284 283 283 284 284 284 283 283 283 282 282 283 283 282 282 283 284 284 283 285 286 289 287 291 295 298 299 300 301 303 305 308 319 325 326
283 284 284 284 284 284 284 283 282 282 282 281 282 281 282 282 282 282 282 282 282 282 281 282 283 281 280 284 286 287 284 286 290 295 297 299 298 300 307 307 313 323 324
283 284 284 284 283 283 283 282 280 279 278 279 280 280 280 281 281 281 281 281 281 281 280 282 281 281 281 280 283 285 289 288 283 283 293 297 299 298 298 301 307 319 323
283 283 283 283 282 282 282 281 280 278 278 279 278 278 278 279 280 280 280 280 280 280 280 280 280 279 280 280 281 282 283 285 287 285 282 289 295 297 299 300 303 305 314
283 283 282 281 281 281 281 280 278 276 276 276 276 276 276 277 278 278 279 279 279 279 279 279 279 279 279 280 282 281 280 279 281 284 284 286 290 294 297 298 301 303 307

GFSSE_sfc_thetae_006.txt.gz
Theta_e
322 328 332 341 345 346 347 348 347 346 347 346 347 347 348 348 348 348 349 348 349 349 348 349 349 348 347 346 346 347 347 347 349 350 354 354 354 353 353 356 354 351 353
320 326 332 337 341 343 344 346 346 347 347 347 347 347 347 347 347 348 348 348 347 347 349 349 349 349 348 347 346 346 346 348 349 348 350 351 352 353 352 355 354 351 354
319 322 329 332 334 336 338 339 341 343 344 344 343 343 343 343 343 344 344 344 345 346 347 347 348 348 349 348 348 347 347 349 349 347 347 350 348 353 351 355 354 353 354
315 319 324 328 329 330 332 334 336 337 336 337 338 340 340 340 340 340 339 339 341 343 344 345 346 347 349 348 347 347 349 349 348 345 337 344 346 352 350 352 355 354 353
314 318 320 323 324 325 326 328 330 330 330 332 333 334 333 335 333 333 333 335 336 339 341 343 344 344 345 344 345 346 347 349 347 344 341 340 347 349 350 351 352 353 351
308 314 317 318 321 321 321 323 323 323 323 325 325 327 330 325 323 324 327 328 328 330 333 335 338 339 340 342 343 343 345 347 345 341 344 342 342 350 350 352 352 351 348
303 310 313 314 316 317 317 317 318 318 317 317 318 320 320 317 317 318 320 321 323 324 326 329 332 332 333 337 340 341 344 344 341 340 341 342 344 347 349 351 353 352 352
302 304 307 308 310 312 313 313 313 314 314 313 313 313 313 312 312 313 315 316 317 318 319 323 327 326 327 331 333 335 335 337 338 338 338 340 342 345 345 348 352 352 351
301 301 302 303 304 307 307 308 309 309 310 310 309 308 308 308 308 309 309 312 313 314 315 318 318 319 319 319 321 322 322 329 336 337 337 338 339 343 345 345 351 351 351
299 299 300 302 302 303 304 304 305 306 306 306 306 305 304 304 304 304 305 307 310 311 311 313 313 313 313 313 313 314 315 320 335 335 336 337 338 341 343 344 347 350 350
298 298 300 300 301 301 301 299 301 302 302 302 302 302 304 303 303 303 302 303 306 306 307 309 310 310 309 310 310 311 312 323 325 331 335 333 338 340 341 341 345 348 349
297 297 298 299 299 300 298 300 301 300 301 301 302 302 302 302 301 300 302 301 302 302 304 306 306 306 307 307 307 310 309 311 313 321 328 331 335 338 340 341 344 345 348
297 296 297 298 299 299 299 300 301 301 301 301 301 301 301 301 301 300 300 300 301 301 301 302 303 303 305 306 306 306 307 307 308 312 318 325 329 334 337 339 343 344 345
295 296 296 297 298 299 299 299 299 300 300 300 299 300 299 299 298 298 298 299 299 300 299 299 300 302 303 304 305 305 306 306 306 306 309 315 321 327 331 335 339 343 345
294 295 296 297 297 297 298 298 299 298 298 298 298 298 297 297 296 296 297 297 297 298 297 297 298 299 301 302 304 304 304 305 305 305 307 309 312 314 326 332 335 338 342
295 295 295 296 296 296 297 297 298 298 297 297 297 297 295 295 294 294 295 295 295 295 295 295 296 297 298 300 301 302 302 303 304 305 305 307 311 312 314 325 333 335 338
295 295 295 295 296 296 296 296 297 296 296 296 295 295 294 293 293 292 293 293 294 294 294 295 295 295 296 297 298 299 300 302 303 303 304 305 306 309 311 313 320 333 335
294 294 295 293 294 295 295 295 295 296 296 296 295 295 293 291 291 291 291 292 293 292 293 293 293 293 294 294 295 296 297 299 301 302 304 305 305 306 309 312 318 324 332
294 294 293 294 294 294 294 293 294 294 294 295 294 293 292 291 290 290 290 291 291 291 291 291 291 292 291 293 294 295 296 297 299 300 302 302 303 305 306 308 310 311 324
293 293 293 293 294 293 293 293 293 293 294 293 293 292 290 290 289 289 289 290 290 289 290 290 290 291 291 292 291 291 294 297 299 299 299 300 302 303 304 306 308 308 312
292 292 292 292 292 292 292 291 291 291 291 291 291 290 289 288 288 288 288 288 289 288 288 288 289 289 290 290 289 292 292 296 297 298 300 301 302 303 304 306 307 309 311
291 291 291 291 292 291 291 290 290 289 290 290 290 289 289 288 287 286 286 287 287 287 287 287 287 287 287 289 286 287 288 291 297 296 295 297 299 301 303 305 306 309 311
290 291 291 291 291 291 290 289 288 288 287 287 288 288 288 287 287 286 286 286 286 287 286 286 286 286 284 287 288 286 285 285 288 293 293 295 296 298 301 302 304 308 312
290 291 291 290 289 289 289 288 287 286 286 287 287 287 286 286 285 285 285 285 285 286 285 286 285 285 284 283 286 286 287 287 284 284 290 292 293 294 297 300 303 304 305
291 291 290 290 289 288 288 288 287 286 286 286 285 284 285 285 285 284 284 284 284 285 285 284 284 284 284 283 283 284 284 285 286 284 281 285 290 293 295 296 300 303 304
290 290 290 289 287 287 287 287 286 285 284 283 283 283 283 283 283 283 283 283 283 283 283 284 284 283 283 283 283 283 282 283 283 283 283 283 284 286 290 293 296 302 303

GFSSE_sfc_thetae_009.txt.gz
Theta_e
324 332 337 341 344 346 347 348 347 347 347 347 348 348 348 348 348 348 348 348 347 348 349 349 350 350 349 347 347 346 346 346 346 346 346 350 353 352 352 354 354 349 353
326 329 334 336 339 342 343 345 346 346 346 346 345 345 344 344 346 345 345 346 347 347 347 347 348 348 348 348 348 347 348 349 349 348 346 345 351 353 351 353 353 350 354
323 326 330 332 334 336 337 340 341 341 342 343 343 343 342 341 342 342 341 341 343 345 346 346 347 347 347 347 347 347 347 350 349 347 345 337 342 354 352 353 354 354 353
320 324 325 328 329 331 333 336 335 335 337 338 339 339 338 337 336 337 337 338 338 340 342 344 345 345 345 345 346 346 346 347 348 346 343 334 338 353 350 350 353 355 355
319 321 321 324 325 326 328 329 328 329 331 330 331 333 332 328 328 330 331 331 332 333 336 337 339 340 339 342 343 344 344 346 346 342 341 342 339 344 349 350 352 352 351
316 318 318 320 321 322 323 323 322 322 324 324 328 326 323 322 322 323 323 324 325 327 329 332 334 334 333 336 339 341 342 344 343 338 338 340 343 346 347 351 352 351 349
312 314 315 316 317 317 318 318 318 318 318 319 320 319 317 317 317 317 318 319 320 321 322 326 329 328 327 329 332 334 334 334 338 337 337 339 340 347 345 345 350 352 352
306 311 310 311 312 313 313 313 314 315 315 314 314 314 313 312 313 313 314 315 316 316 317 320 320 320 321 322 323 324 323 323 331 335 337 338 340 344 343 345 347 350 352
305 305 306 307 308 309 309 309 310 311 311 311 310 309 309 308 308 309 309 312 313 314 314 315 316 316 316 316 316 317 317 317 320 332 333 335 338 340 342 343 344 347 350
303 303 304 304 304 306 306 306 307 308 307 307 306 304 303 306 305 305 305 307 309 309 311 312 312 313 313 313 312 312 314 315 321 332 336 335 338 339 341 341 342 343 345
301 302 303 303 304 304 303 302 304 304 303 302 304 302 307 304 303 304 303 304 306 306 308 309 310 310 309 312 315 314 314 312 317 319 324 331 334 338 339 340 342 343 344
300 300 301 302 302 302 299 303 303 302 303 304 304 304 303 304 302 302 304 304 304 303 305 306 307 307 309 306 307 311 307 308 308 310 315 326 329 332 337 338 338 340 343
302 301 300 301 302 302 301 303 303 303 303 303 303 303 303 303 302 301 302 302 303 304 301 301 302 302 304 305 305 306 306 307 307 307 309 318 317 321 328 333 335 337 340
302 300 300 300 301 302 302 302 302 302 302 302 302 301 301 301 301 300 300 300 302 301 300 300 301 302 302 303 304 305 305 306 306 307 308 312 314 314 319 324 331 334 336
300 300 299 300 300 300 301 301 301 301 301 301 300 299 299 299 298 298 298 298 298 298 298 297 298 299 300 301 301 303 303 304 304 305 307 309 312 311 314 317 320 329 334
300 299 299 298 300 299 299 300 300 300 299 299 299 298 297 297 296 296 296 296 297 296 296 296 296 296 298 299 299 300 300 301 302 304 305 306 311 312 311 314 316 319 326
300 299 298 298 299 298 299 299 299 299 298 298 298 297 296 295 295 294 295 295 295 295 295 295 295 295 295 296 297 298 299 300 300 300 303 304 306 309 312 311 313 316 318
300 298 298 297 297 297 298 298 298 298 297 297 296 296 295 294 293 293 293 293 294 293 293 293 293 293 294 294 295 296 297 298 299 300 301 302 304 305 308 309 310 311 314
299 298 297 296 296 296 297 296 297 297 296 296 295 295 294 293 292 292 292 292 292 292 292 292 292 291 292 292 294 294 295 295 297 298 300 301 302 303 304 307 309 309 309
299 298 297 296 295 296 296 296 296 295 295 295 294 294 292 292 291 291 291 291 291 291 291 291 290 291 291 292 290 291 294 296 297 298 299 300 302 303 304 305 306 306 310
298 296 296 295 295 295 294 293 293 292 294 293 293 293 292 291 290 290 290 290 290 289 290 289 289 289 290 291 289 291 291 293 295 298 300 302 301 302 304 304 305 305 307
296 296 296 295 294 295 295 295 294 293 293 293 293 292 291 290 290 289 288 288 289 288 288 289 289 287 289 290 286 286 287 289 296 293 294 295 298 298 299 301 303 303 305
295 296 295 295 294 294 294 293 291 290 290 289 290 291 291 290 289 288 288 288 287 288 287 288 288 287 285 287 288 285 283 283 285 291 292 292 295 295 295 295 297 298 299
296 297 295 295 294 294 293 291 290 288 288 290 291 291 290 289 288 288 287 287 287 287 287 287 287 286 285 283 286 287 288 286 282 281 289 289 291 292 293 293 295 297 297
296 295 295 294 293 293 292 291 290 290 290 290 289 288 288 289 288 287 287 286 286 286 286 286 285 285 286 284 284 285 285 285 285 282 280 284 288 290 292 291 291 293 294
296 295 294 293 292 292 291 290 290 289 289 288 287 286 287 287 287 286 286 285 285 284 284 285 285 284 284 284 284 284 283 282 282 283 282 282 282 285 287 289 289 290 292

GFSSE_sfc_thetae_015.txt.gz
Theta_e
324 332 343 343 345 348 348 347 347 348 348 348 347 347 347 347 345 344 345 347 347 347 348 348 349 350 349 349 348 348 348 348 348 347 346 346 343 346 351 352 350 348 354
326 331 340 340 342 346 347 347 347 347 347 346 346 346 345 344 343 341 341 341 343 346 347 347 348 346 346 347 347 347 347 347 348 347 345 344 345 343 350 351 350 350 352
326 328 331 338 339 341 343 344 344 344 345 345 344 342 340 339 338 338 337 337 338 339 340 343 343 341 340 342 344 345 345 345 345 344 342 338 336 351 353 351 351 353 352
323 324 326 336 337 339 338 338 339 338 340 341 340 338 335 335 335 335 333 333 334 335 337 339 338 336 335 336 339 341 342 341 342 342 335 336 335 353 351 351 351 351 350
318 321 326 332 335 335 334 335 336 335 335 336 334 332 331 329 328 327 326 325 326 327 331 334 332 331 331 332 334 335 335 334 335 336 333 332 334 346 347 347 348 349 348
315 318 326 328 330 330 329 330 331 331 334 329 327 325 325 323 322 321 321 321 321 322 325 324 323 322 322 324 327 329 329 329 328 324 329 332 332 342 345 346 348 346 346
311 314 318 325 326 326 325 325 325 326 327 323 321 320 319 318 318 319 319 319 318 319 320 319 319 318 318 318 319 320 319 319 315 316 321 327 329 344 340 343 345 346 347
309 311 313 321 323 322 322 322 321 321 320 319 318 316 316 316 315 316 316 316 316 316 317 317 317 316 316 316 316 314 314 315 311 308 314 323 334 342 340 341 342 342 343
307 307 306 309 314 318 319 319 319 317 316 315 314 313 312 311 311 310 312 313 314 314 315 315 315 314 315 315 315 314 316 317 304 309 315 324 331 335 341 341 340 340 340
303 303 303 304 304 304 306 316 316 314 312 311 310 309 309 309 308 307 307 310 311 312 312 312 312 311 310 311 311 311 311 308 301 302 304 307 320 325 332 336 339 339 339
299 299 299 301 301 301 302 308 312 310 309 308 306 307 305 298 299 301 306 308 308 308 309 309 308 307 306 305 307 308 307 301 301 301 301 313 316 319 321 324 327 332 336
294 296 297 297 299 299 302 301 299 301 300 300 299 298 299 297 298 301 304 305 304 303 304 305 305 303 300 296 297 302 299 299 299 300 301 310 313 315 317 318 319 322 325
294 295 296 297 296 297 296 297 296 297 296 297 296 297 297 296 295 295 294 294 294 297 293 295 294 294 294 294 295 295 296 297 296 298 301 308 310 313 315 316 317 318 320
293 295 295 295 296 294 296 297 296 296 295 295 295 296 295 293 292 292 292 292 291 291 290 290 291 292 292 293 294 294 294 294 294 296 298 305 307 311 313 315 317 317 319
295 294 294 294 295 295 295 295 295 295 295 295 293 294 294 292 290 291 291 290 290 290 289 289 290 290 291 292 293 293 293 293 293 294 295 301 304 307 310 313 315 316 318
297 295 294 295 295 296 294 293 294 293 294 294 292 292 293 291 290 290 290 290 289 289 289 289 289 289 289 290 291 292 292 292 293 293 294 294 302 304 306 309 313 314 316
298 296 294 294 294 295 294 293 293 293 293 292 292 291 291 291 289 289 288 288 288 288 288 288 288 288 288 289 289 290 291 292 292 292 293 294 295 301 304 307 309 311 312
296 294 294 296 294 294 293 292 293 292 292 292 291 290 290 290 289 288 287 287 287 287 287 286 286 286 286 286 286 288 289 289 289 290 291 292 293 295 300 305 307 308 309
297 295 293 294 293 293 292 292 292 290 291 290 290 289 289 289 289 287 287 286 287 286 286 287 286 285 284 285 286 287 287 287 288 290 290 291 293 295 295 301 306 307 308
296 294 293 293 292 292 292 290 290 289 289 289 288 289 289 288 288 287 286 286 287 286 285 285 284 285 284 284 286 286 286 287 286 286 288 291 293 295 293 295 296 299 303
294 292 292 291 292 292 291 289 288 289 288 287 287 288 288 287 287 286 286 285 285 284 284 285 284 284 283 284 282 283 283 285 285 286 286 286 287 290 292 292 291 292 293
292 292 291 291 291 292 292 291 288 288 286 287 287 287 288 287 287 286 285 284 284 283 283 283 283 282 283 283 280 280 279 282 285 285 285 286 285 288 288 289 289 290 291
292 291 291 291 291 292 291 289 286 286 285 285 285 286 286 287 286 285 284 284 283 283 282 282 282 282 281 281 282 280 277 277 280 283 284 284 284 284 285 287 290 290 289
292 292 292 291 290 291 290 290 287 287 286 288 288 286 285 286 285 285 284 283 282 282 282 282 283 281 281 280 281 283 281 281 278 277 282 283 284 285 285 286 287 288 290
292 291 291 290 290 290 290 290 288 287 287 282 283 285 284 284 284 284 283 282 281 281 281 281 281 281 281 280 280 280 280 279 280 278 276 278 282 284 284 284 285 286 287
290 290 290 290 289 290 289 289 288 287 283 282 283 284 284 283 283 282 283 281 281 281 280 281 280 280 280 280 280 280 280 278 278 277 276 277 278 280 282 283 284 284 285

GFSSE_sfc_thetae_021.txt.gz
Theta_e
325 333 344 348 347 349 349 348 347 347 348 349 348 347 346 345 344 345 345 345 346 346 348 347 345 345 346 346 346 346 346 345 344 342 342 343 344 344 347 349 348 347 351
330 334 344 348 347 347 348 347 347 349 348 347 347 346 344 343 341 340 340 341 343 345 346 343 341 341 340 342 344 344 342 341 342 341 341 338 342 344 343 349 350 349 351
330 333 336 341 348 348 348 348 348 347 347 346 344 341 339 339 337 337 337 337 337 337 341 341 338 336 335 336 339 339 337 337 336 336 337 331 332 352 350 351 351 349 349
329 331 332 339 346 347 347 347 347 346 345 344 341 340 338 338 337 334 334 335 335 336 337 335 333 331 331 332 332 333 332 331 329 328 325 329 331 344 348 346 346 346 347
324 327 331 340 342 342 342 342 343 342 342 341 338 337 336 333 331 328 328 327 331 332 330 327 325 323 323 323 325 324 323 322 319 313 312 320 325 337 346 345 344 344 344
320 323 332 339 340 340 340 340 338 338 339 337 336 333 331 328 326 325 324 324 326 324 323 322 320 320 320 319 319 319 320 319 315 306 309 319 324 341 342 345 345 345 344
316 320 326 337 336 337 338 337 336 336 335 333 332 329 326 324 323 322 322 322 321 321 320 319 318 319 318 319 318 317 316 312 303 304 308 314 318 340 343 343 342 341 341
315 317 321 330 333 334 336 335 335 334 332 329 327 324 323 322 321 320 320 320 320 320 319 319 318 317 318 316 315 314 313 310 301 300 302 309 322 332 336 337 339 341 340
313 314 315 319 324 329 331 332 334 331 328 325 323 322 321 319 319 318 318 318 319 318 318 315 315 314 314 314 313 311 309 308 297 299 302 307 319 325 327 327 328 330 333
308 310 310 311 315 315 318 325 327 327 325 322 320 319 318 316 316 315 318 317 317 316 315 312 311 310 310 309 308 307 305 303 296 297 298 306 316 321 323 323 323 324 325
305 306 306 307 307 308 310 315 320 322 322 320 318 316 311 301 303 304 312 315 313 312 312 309 307 305 303 304 304 303 300 294 294 294 296 308 313 317 319 320 320 321 321
302 303 303 303 303 303 308 308 307 309 307 305 303 301 297 296 298 302 307 310 309 308 308 306 304 301 296 292 292 296 292 292 292 293 294 305 309 313 316 318 319 319 320
303 302 302 302 300 300 302 302 301 300 299 298 297 295 294 295 297 295 294 292 292 295 291 292 291 290 290 290 290 290 290 290 290 291 295 302 306 310 312 314 316 318 319
298 300 300 300 299 297 298 300 298 297 295 295 294 295 293 293 291 291 290 289 289 289 288 288 288 289 289 290 290 289 289 289 289 290 292 299 303 306 309 311 313 316 318
295 298 298 298 298 297 296 297 295 295 296 294 293 294 293 291 290 290 289 288 287 288 287 287 287 287 287 289 288 288 288 288 289 289 290 296 300 304 307 310 313 314 315
295 295 297 297 298 297 295 296 296 295 295 293 292 293 292 291 289 289 288 288 287 287 287 287 286 286 286 287 287 288 288 288 288 288 288 289 298 301 305 308 310 312 313
296 295 294 296 296 296 295 294 294 294 295 293 292 292 292 291 289 288 288 287 286 286 286 286 286 285 285 286 285 287 287 288 288 287 288 289 290 297 303 306 309 310 311
296 294 294 297 295 295 295 294 294 294 294 294 291 290 291 290 289 287 287 286 286 286 285 285 284 284 284 284 284 285 285 286 287 287 288 289 290 292 297 306 307 309 309
297 296 293 295 295 295 294 294 293 293 293 293 290 290 289 289 288 287 286 286 286 285 284 285 283 283 282 283 284 284 284 284 285 287 286 287 288 291 291 299 299 299 303
297 296 295 294 295 294 294 292 291 291 291 290 291 290 289 289 288 286 285 285 285 284 284 283 283 283 282 282 284 283 283 284 284 285 284 286 287 289 289 288 288 289 298
295 295 294 293 293 294 292 290 291 291 290 290 291 290 288 288 287 286 285 284 284 283 283 283 282 282 282 281 280 281 282 284 284 283 283 284 284 286 286 286 287 288 289
295 295 295 293 293 293 294 294 292 293 289 291 290 289 288 287 286 285 285 284 283 282 282 282 282 281 281 281 279 279 278 280 283 283 283 284 282 284 284 285 285 287 286
294 294 294 293 293 294 294 292 286 286 285 285 286 287 287 287 286 285 284 284 283 282 282 281 281 281 280 280 280 279 277 277 278 281 282 282 282 282 283 283 284 285 285
294 294 294 293 292 293 293 291 290 290 289 288 290 288 287 286 285 285 284 283 283 282 281 281 282 281 280 279 280 282 280 279 277 276 280 280 281 281 281 282 282 283 284
292 292 292 292 291 292 292 292 291 290 291 287 286 285 286 285 285 284 284 282 282 282 281 281 281 281 280 280 280 279 279 278 278 277 276 278 279 280 281 282 282 282 283
289 289 290 290 290 291 291 291 290 290 286 284 284 285 285 285 284 283 283 282 281 281 281 281 281 280 280 280 280 280 279 278 277 277 276 276 276 278 280 280 280 281 282

GFSSE_sfc_thetae_024.txt.gz
Theta_e
322 331 346 348 349 349 349 348 347 347 348 349 347 347 347 347 347 346 346 346 347 347 347 345 344 345 345 346 346 345 342 341 341 342 342 342 348 344 349 349 349 347 351
325 332 344 348 348 350 349 347 347 347 348 349 346 344 344 342 341 341 342 343 345 347 345 343 340 339 339 341 342 341 339 338 336 337 338 336 341 346 349 351 351 347 350
329 333 340 347 349 349 349 348 347 349 348 347 346 344 341 339 338 338 337 338 338 339 342 340 336 335 335 335 336 335 334 333 330 329 331 327 330 351 350 349 348 347 348
331 331 332 343 348 349 348 348 349 348 347 346 343 341 340 340 338 337 336 336 337 337 336 334 332 331 330 331 330 328 327 327 322 320 316 324 328 345 347 346 345 344 345
327 329 331 341 347 348 348 349 348 348 346 343 342 340 339 336 334 333 332 333 335 334 331 328 325 324 324 324 323 323 323 321 318 313 314 322 324 339 346 345 344 344 345
323 327 333 340 343 343 343 343 343 344 343 341 337 337 335 334 330 329 327 330 329 327 325 323 321 321 321 320 321 320 318 316 312 307 311 315 319 344 342 345 343 344 342
319 323 328 339 342 342 341 341 340 339 338 337 336 334 333 329 327 325 325 325 324 323 321 320 320 320 320 318 318 317 315 312 300 301 307 311 320 338 341 341 342 342 341
317 319 324 333 336 339 338 340 338 337 336 335 334 331 328 326 324 323 322 322 322 321 320 320 319 318 317 316 315 314 312 307 300 299 304 308 323 330 331 332 332 333 335
315 316 319 324 330 331 333 334 334 335 334 332 331 327 325 323 322 321 321 321 321 320 319 317 316 316 315 314 312 310 309 306 295 298 303 307 322 326 327 327 327 328 329
310 313 314 316 319 320 322 329 331 333 332 330 327 325 323 322 321 320 321 320 320 319 316 314 313 313 311 310 308 306 304 302 293 295 299 306 317 322 323 323 323 324 324
307 308 309 311 313 313 314 319 325 327 326 324 322 320 313 305 306 306 313 319 318 316 314 312 310 308 306 306 305 303 299 292 292 293 297 308 313 317 319 320 321 322 322
304 305 306 307 308 308 312 311 311 313 312 309 307 304 300 299 300 303 310 316 315 313 310 309 306 302 295 290 291 295 290 290 290 291 295 306 310 313 315 317 318 320 320
306 305 305 305 305 305 306 306 305 304 303 302 301 298 296 296 299 298 297 296 294 298 293 293 290 289 289 289 289 288 288 289 288 290 295 303 306 310 312 314 316 318 320
302 304 303 303 303 302 303 304 303 302 299 298 297 294 293 293 293 293 291 289 288 288 288 288 288 288 288 289 288 288 288 288 288 289 291 300 304 307 310 312 315 318 317
299 302 302 302 303 302 300 300 300 299 299 297 294 294 293 292 290 290 289 288 287 287 287 286 287 287 287 287 287 287 287 287 287 288 288 298 303 307 310 313 314 315 317
297 300 301 301 303 301 300 300 301 298 296 294 293 294 292 292 290 289 288 287 286 286 286 286 286 285 285 286 286 287 287 287 287 287 287 289 300 304 309 312 314 315 316
296 297 299 300 301 299 299 298 298 298 296 294 293 292 292 291 289 288 288 286 286 286 286 286 285 285 284 285 285 286 286 286 286 287 288 288 291 302 308 310 311 312 313
297 294 295 300 299 298 298 296 297 295 295 295 293 292 292 291 289 287 287 286 286 285 285 284 284 283 283 283 283 283 284 285 286 287 287 288 291 292 303 306 306 307 308
297 296 294 296 297 297 297 295 294 293 294 294 292 291 291 291 289 288 287 286 285 284 284 284 283 282 282 282 283 283 283 284 285 286 285 286 289 290 288 296 297 300 304
297 297 295 294 296 296 296 293 291 290 292 291 292 291 290 291 289 287 286 285 285 284 283 283 282 282 282 281 283 282 282 283 284 283 283 286 288 286 285 286 287 289 296
294 294 294 293 294 294 293 291 291 291 291 291 292 291 290 290 288 287 286 285 284 283 283 282 282 281 281 281 280 281 281 283 282 282 282 283 284 284 284 285 285 286 286
294 294 294 293 293 294 294 294 293 294 292 293 292 290 290 288 287 287 286 284 284 283 282 282 282 281 281 280 280 279 279 280 282 282 282 282 281 283 283 284 284 284 284
292 293 294 294 293 294 294 293 286 286 285 286 287 289 289 288 287 287 285 285 284 283 282 281 281 281 280 279 279 280 277 278 278 280 281 281 281 281 282 282 283 283 284
293 293 294 294 293 293 293 292 291 291 289 290 291 291 289 288 287 286 286 285 284 283 282 282 281 280 280 280 280 281 280 279 277 276 279 280 281 281 280 281 281 282 283
292 291 292 292 292 292 293 293 292 292 293 289 289 288 287 287 286 285 285 284 283 283 282 281 280 280 280 280 280 280 279 278 279 277 276 277 279 279 280 280 281 281 282
290 289 289 289 290 291 292 292 291 292 289 286 286 287 286 286 285 284 284 284 283 283 282 282 281 280 280 280 280 280 280 278 277 276 276 276 276 278 279 279 279 280 281

GFSSE_sfc_thetae_027.txt.gz
Theta_e
328 336 348 350 350 349 349 349 349 349 349 349 348 349 348 348 347 347 347 347 348 348 346 344 343 344 343 344 343 341 339 339 339 341 340 344 347 349 349 351 350 349 351
330 338 346 349 351 350 350 348 348 348 349 348 348 346 345 344 343 343 343 343 348 346 344 342 340 338 339 339 339 337 337 335 333 335 335 338 345 351 350 349 349 348 349
332 337 343 348 350 351 350 349 348 347 349 348 347 345 343 340 339 338 339 339 340 343 342 340 336 335 335 335 334 332 331 329 327 328 332 337 343 349 348 346 346 345 347
333 337 343 345 349 350 350 350 349 349 349 348 347 343 340 338 339 338 337 337 338 337 336 335 332 331 330 330 327 327 328 325 324 326 331 335 339 347 346 345 344 344 344
333 336 338 344 348 350 349 349 349 349 350 348 345 342 339 338 337 336 336 336 336 335 333 329 326 325 325 324 324 324 324 323 323 323 326 334 342 343 346 344 343 342 343
332 333 335 344 348 348 348 349 350 349 348 344 342 340 339 336 334 333 332 335 334 331 328 324 322 322 322 321 321 320 319 318 316 319 323 328 340 345 345 344 342 343 342
329 331 335 341 345 345 346 347 346 345 344 342 338 338 336 334 331 329 329 330 327 325 322 321 321 321 319 319 318 317 315 313 311 315 318 324 334 337 338 337 337 338 339
328 328 332 334 339 341 342 343 342 342 339 338 337 336 334 331 328 326 326 325 323 322 322 322 321 319 318 317 316 314 311 308 307 311 315 320 330 332 332 332 331 332 333
324 325 328 333 335 333 337 339 339 339 336 337 336 334 331 328 326 324 323 323 323 322 322 320 319 318 316 315 312 310 308 306 304 308 311 318 325 328 328 328 328 328 329
320 322 324 327 330 331 332 331 332 334 333 335 333 330 327 326 325 324 323 323 322 321 319 317 317 315 313 311 309 306 303 302 301 305 308 313 319 323 324 325 325 325 326
314 317 320 323 325 326 326 327 328 329 331 330 327 324 320 318 318 318 318 323 321 318 316 314 313 311 309 307 305 302 298 298 299 301 306 310 314 318 320 321 321 322 323
312 313 315 318 320 320 320 324 326 324 325 323 320 317 312 311 312 311 315 319 319 316 313 311 308 303 297 297 297 297 296 296 297 298 303 308 312 314 316 318 319 320 322
313 313 312 314 316 316 318 318 319 317 318 315 313 309 308 307 308 309 310 308 307 305 304 302 298 296 296 296 295 295 295 295 296 296 300 304 308 311 313 315 318 321 321
308 311 311 311 312 313 314 314 314 314 312 310 309 306 304 304 305 304 304 302 301 299 297 296 295 295 295 294 294 294 294 295 295 295 296 302 306 309 312 315 319 318 319
305 308 309 310 311 311 310 312 311 312 310 308 306 303 301 301 302 301 300 297 296 294 295 294 294 293 294 293 293 293 293 293 293 294 297 301 306 310 314 315 317 318 319
305 306 308 308 310 309 310 309 310 309 308 305 304 302 299 300 300 299 296 294 293 293 293 293 293 292 293 293 292 292 292 293 293 293 295 300 304 309 313 316 317 319 319
302 304 305 306 308 308 308 307 309 307 304 304 303 300 298 298 297 297 295 293 292 292 292 292 291 291 291 291 291 291 292 292 292 293 295 297 302 307 313 313 315 316 319
300 299 303 305 305 307 307 306 307 306 304 304 302 300 298 297 296 294 294 293 292 291 292 291 290 290 290 290 290 290 291 292 292 292 294 297 301 303 305 307 309 310 313
300 299 298 302 304 305 306 305 305 304 304 303 301 299 298 296 295 294 294 293 291 290 290 290 289 290 289 289 289 289 290 291 291 290 292 295 296 294 295 299 300 301 302
299 300 298 298 302 303 304 303 301 299 301 300 299 298 297 296 294 294 293 292 290 290 289 289 289 288 289 289 286 288 289 290 290 290 292 293 291 291 292 291 293 293 296
297 297 297 295 298 300 300 297 296 296 297 297 298 297 296 296 294 293 292 291 290 289 289 289 288 288 287 287 287 287 288 288 288 288 290 290 289 289 290 290 291 291 291
297 296 297 296 296 297 299 299 299 299 298 297 297 296 296 295 294 293 292 291 290 289 288 288 288 286 287 286 288 288 285 287 288 288 288 287 288 288 288 288 288 289 290
295 295 296 296 295 296 298 297 291 293 292 293 293 293 293 294 293 293 291 291 289 289 288 288 288 288 286 285 285 289 284 287 286 286 287 287 287 287 288 287 287 288 289
296 296 295 295 295 295 296 295 294 295 293 294 295 294 293 293 292 292 291 290 289 289 288 287 287 288 287 285 285 285 286 287 286 283 285 286 286 286 287 287 287 287 288
294 294 294 294 294 294 295 296 294 295 295 292 294 293 292 291 292 290 290 289 289 288 288 287 286 286 287 287 286 284 284 284 284 285 284 284 285 286 286 286 286 287 287
293 292 292 292 292 293 293 294 293 294 293 290 290 291 290 290 289 289 289 288 289 288 287 287 287 287 286 286 286 286 285 285 283 283 283 283 284 284 285 286 285 286 287

GFSSE_sfc_thetae_030.txt.gz
Theta_e
334 340 348 352 350 350 350 350 349 349 349 349 350 350 350 348 348 347 346 348 349 347 345 344 343 343 343 343 341 339 339 338 339 341 344 348 349 351 350 349 348 347 351
335 339 347 352 352 350 351 350 351 350 350 349 349 347 347 346 345 345 345 348 347 345 343 342 340 338 338 339 337 336 335 333 334 336 339 349 350 348 347 346 347 347 349
333 340 347 349 352 351 350 350 348 349 349 349 347 346 343 341 340 341 341 342 345 344 342 339 336 335 335 335 333 331 331 329 330 333 339 346 348 348 346 345 345 345 347
334 341 345 346 351 352 351 350 348 348 350 348 347 345 342 339 339 338 337 338 339 339 338 336 334 331 331 329 327 328 327 327 329 332 339 342 344 346 345 344 343 343 344
335 339 342 345 349 351 351 350 350 349 350 349 346 343 340 337 337 337 337 336 337 336 335 330 327 326 325 324 324 324 324 325 324 334 337 342 342 346 345 343 341 342 344
335 338 340 345 349 350 350 350 349 349 350 349 346 342 340 338 336 335 335 336 335 334 330 326 323 323 322 321 320 320 319 319 325 330 334 338 342 344 344 343 342 342 342
335 339 341 344 347 349 349 349 349 350 349 346 344 341 340 337 335 332 332 334 331 328 325 323 323 321 320 319 317 316 315 315 323 326 330 335 337 338 338 337 337 338 338
335 338 340 338 341 344 347 347 348 347 345 342 341 339 338 336 333 330 330 329 327 324 323 323 322 320 319 317 316 313 312 311 318 322 326 330 332 333 333 332 332 332 334
336 337 338 339 341 335 339 340 341 342 340 339 339 338 336 334 330 328 328 326 324 323 324 322 320 318 317 315 313 310 309 307 313 317 319 325 325 328 328 328 328 329 329
334 335 336 338 339 341 342 333 335 337 337 336 336 334 331 329 328 327 325 325 324 323 321 320 318 316 314 311 308 306 304 305 308 310 315 317 319 324 324 325 325 326 326
328 332 335 335 335 338 336 333 330 331 331 332 331 328 325 328 325 323 322 325 324 321 319 318 315 313 310 307 305 302 300 304 304 307 310 312 316 318 320 321 322 323 324
324 327 330 332 332 335 332 333 333 334 334 332 331 329 329 325 323 321 319 322 323 320 316 315 312 306 302 303 302 300 303 302 303 304 307 308 312 314 316 318 320 321 323
323 325 326 328 331 332 331 331 332 332 333 331 330 329 325 322 319 319 319 320 320 314 313 311 306 302 301 303 302 302 302 302 302 302 302 304 308 312 314 316 319 322 322
320 322 324 325 327 329 331 329 330 327 330 327 328 325 321 318 317 316 317 317 316 313 310 306 302 302 301 300 301 300 301 301 301 301 301 303 307 310 313 318 320 320 321
316 319 321 323 324 326 327 327 328 328 327 326 326 321 319 317 315 314 314 314 313 310 307 302 301 300 300 299 299 299 299 300 299 300 303 303 307 311 316 318 319 320 321
314 316 319 320 322 323 324 325 325 325 326 325 323 320 317 315 313 311 311 310 309 306 303 301 300 300 299 299 298 298 298 299 299 299 302 305 306 311 314 317 319 320 323
311 313 315 317 319 320 321 323 323 322 323 322 320 318 315 313 310 309 309 307 305 302 301 300 299 299 298 297 297 297 297 298 298 298 300 304 309 310 316 316 317 321 319
310 310 312 313 315 318 319 320 320 321 319 319 318 316 313 310 308 306 306 305 302 300 299 298 297 297 297 297 297 297 297 298 298 299 300 303 309 310 309 311 313 316 316
310 309 309 311 312 314 317 318 318 318 317 316 316 314 311 309 306 304 304 303 300 298 298 298 297 297 296 296 295 296 297 297 297 297 300 304 305 306 306 302 301 303 304
309 309 309 308 310 312 314 315 316 315 315 315 314 313 311 307 305 303 302 302 299 298 297 297 296 296 297 296 291 293 296 296 297 297 299 300 299 297 298 298 299 297 298
307 307 307 306 306 308 309 310 311 310 311 311 312 311 309 307 304 303 302 300 298 297 297 296 296 294 294 295 294 293 293 294 293 295 298 297 295 295 295 296 297 297 296
305 305 305 305 305 305 307 309 309 308 309 309 310 309 308 306 304 302 301 300 298 297 297 296 295 294 295 294 294 294 291 291 292 292 294 294 294 294 293 292 293 293 295
303 303 302 303 304 304 305 306 306 304 305 304 305 305 304 304 303 301 301 300 298 298 296 296 295 295 293 293 294 296 291 293 291 291 291 292 292 292 292 292 291 292 293
300 301 301 302 302 301 302 303 303 301 300 302 302 303 303 302 302 301 300 300 299 297 297 297 296 296 297 292 292 291 293 295 292 288 291 291 291 290 291 291 291 291 292
298 298 299 300 300 300 300 301 301 301 302 303 302 302 301 300 300 300 299 299 298 297 297 297 295 295 296 296 293 291 291 291 292 294 289 288 290 291 292 291 291 291 291
295 296 297 297 296 298 299 299 300 299 299 300 298 298 299 298 298 298 298 298 298 297 296 296 296 295 295 295 296 294 292 291 290 291 291 290 289 290 290 290 289 290 291

GFSSE_sfc_thetae_033.txt.gz
Theta_e
336 344 349 352 351 351 351 351 351 350 349 349 348 349 349 348 348 347 348 350 348 347 346 344 343 343 344 343 340 339 338 339 340 343 349 350 351 348 347 348 347 347 351
337 344 348 352 352 351 351 350 350 350 349 349 351 349 348 347 347 347 346 348 346 345 344 342 341 339 339 339 337 335 334 334 336 338 345 349 349 346 346 345 348 348 350
336 342 348 350 351 352 351 350 350 350 349 349 349 347 346 345 344 344 345 347 346 343 341 339 337 337 336 334 331 332 331 331 333 335 341 346 346 347 345 345 346 347 348
335 341 345 348 351 351 351 350 350 350 349 348 347 345 343 341 340 340 339 340 341 340 339 337 335 333 331 328 328 329 328 329 330 334 338 340 344 346 344 343 343 345 346
334 340 343 346 351 351 351 350 349 349 350 349 347 345 342 339 337 337 337 337 338 337 336 331 328 328 325 325 324 324 325 326 326 332 337 339 342 345 344 343 342 343 344
334 339 343 346 350 351 351 350 349 348 350 350 348 343 341 338 336 334 335 336 335 335 331 327 325 324 323 321 320 320 320 321 325 331 335 340 343 345 344 342 342 341 341
334 336 341 345 348 350 350 350 350 349 350 350 347 344 342 340 336 334 333 334 334 331 327 324 323 321 320 319 317 316 316 318 325 328 332 336 335 339 339 338 337 338 338
333 336 337 338 342 346 348 348 348 348 349 348 346 344 341 339 336 333 331 333 330 327 323 323 322 320 319 317 315 314 312 315 320 325 329 331 332 334 334 333 332 333 334
334 336 338 340 341 337 342 344 345 347 347 344 342 339 339 337 334 331 330 330 327 324 324 323 321 319 317 315 312 310 309 312 315 319 323 326 326 328 328 329 329 329 330
334 335 336 338 340 342 344 335 337 340 339 338 336 334 333 332 331 330 328 328 325 324 324 321 319 317 315 312 309 306 304 309 309 313 316 317 320 324 325 325 325 326 326
331 334 336 336 337 338 340 338 332 333 333 332 332 329 327 331 329 326 324 326 325 324 322 320 317 315 312 308 304 301 304 305 306 308 310 313 317 319 320 321 322 323 324
326 331 334 335 336 336 335 339 340 339 337 337 335 334 331 331 329 324 320 323 326 323 320 318 315 311 307 306 303 302 304 304 304 305 307 309 313 315 317 319 320 322 324
324 327 331 333 335 334 335 335 336 335 334 336 335 333 330 330 327 322 322 321 322 316 315 314 309 304 305 305 304 304 303 304 304 304 303 306 310 313 315 316 320 323 322
319 324 327 330 332 333 334 333 333 332 334 335 334 331 330 328 324 321 320 321 322 317 316 313 308 307 304 303 303 302 302 303 303 303 302 304 309 311 313 317 321 320 321
316 320 325 328 328 330 332 332 331 331 332 332 331 327 329 325 322 319 319 319 319 316 313 309 306 304 304 302 301 301 301 301 301 302 305 306 308 312 315 319 319 320 321
315 318 321 325 327 327 329 331 330 330 330 330 329 329 328 324 321 318 317 317 316 314 311 306 304 303 303 303 300 300 300 300 300 301 303 306 307 312 315 317 319 321 323
314 316 319 321 324 325 327 328 329 329 328 329 328 329 326 323 319 316 315 315 314 312 308 305 303 303 302 301 300 299 299 299 299 299 301 305 309 312 316 316 319 322 319
313 314 316 317 320 323 324 326 327 327 327 327 327 326 324 321 318 315 312 312 312 307 304 302 301 300 301 299 299 299 299 299 300 300 301 304 310 312 310 311 315 320 318
312 312 313 315 317 319 322 323 324 325 324 324 324 323 322 319 316 313 310 310 309 304 302 301 300 300 299 299 299 299 299 299 299 298 301 304 308 311 309 303 303 305 308
311 311 311 312 312 315 317 320 321 322 322 322 321 320 319 317 314 311 309 308 306 302 300 300 300 300 300 299 294 295 297 299 299 299 301 304 304 304 305 305 303 299 299
308 308 308 309 310 310 312 314 315 316 318 318 319 319 318 315 313 310 307 306 304 301 300 300 299 298 298 299 295 296 295 296 295 297 300 300 299 299 298 299 300 299 298
303 304 305 306 307 307 310 312 313 313 315 315 316 316 315 314 311 308 306 304 303 300 300 299 298 296 297 297 295 296 292 292 294 294 297 298 297 297 296 296 296 296 297
300 301 302 303 305 305 306 308 309 310 308 308 310 312 312 312 310 308 305 304 302 300 299 299 298 297 294 295 298 298 295 293 292 293 293 295 295 294 295 294 293 294 295
299 301 301 301 302 302 304 304 304 304 302 304 306 308 309 309 308 307 305 304 302 300 299 299 298 297 297 293 294 295 297 298 293 288 292 292 293 292 293 293 292 292 294
297 298 299 299 299 300 302 302 302 301 303 304 305 306 306 306 306 305 305 303 301 300 299 298 297 296 297 296 293 293 293 294 295 295 289 289 291 292 292 292 292 292 292
296 297 297 296 296 298 298 299 300 300 300 300 301 302 302 303 302 302 303 302 301 300 298 298 297 296 296 296 295 295 292 291 290 291 294 290 289 290 291 292 291 291 291